Temp
87 85 85 85 85 85 85 83 80 84 75 74 73 74 86 84 85 83 82 82 81 82 84 82 82 82 82 82 82 82 80 78 75 77 80 79 82 80 80 74 71 69 67
88 84 86 86 86 86 84 85 85 83 81 78 77 80 84 85 84 82 81 84 81 81 82 82 82 87 81 81 79 77 79 79 75 75 78 77 80 81 79 78 77 76 71
89 89 87 87 87 87 85 86 85 83 83 86 83 82 82 84 83 82 82 83 81 83 82 81 82 81 80 80 80 77 76 78 77 75 74 76 77 77 78 79 75 71 69
73 89 86 87 88 88 86 85 86 84 84 83 84 83 83 84 84 84 82 82 82 84 84 85 83 81 80 80 80 78 78 75 76 74 73 73 75 77 76 73 73 70 65
73 73 73 80 87 85 83 82 85 85 85 84 84 83 83 85 87 84 84 83 82 83 84 84 83 77 70 71 78 78 77 75 75 73 72 73 72 72 72 74 72 71 68
81 79 74 74 76 85 84 83 83 83 83 83 83 83 83 88 80 76 82 83 82 81 80 82 79 71 70 69 68 68 71 74 74 73 73 71 71 72 73 72 71 70 66
77 81 82 81 82 84 83 83 82 82 82 82 82 82 82 83 75 71 76 85 83 81 80 80 82 81 75 72 68 68 68 68 70 71 71 70 69 69 71 70 69 66 63
75 75 78 78 80 81 82 81 80 80 81 80 81 82 81 82 67 68 72 82 82 82 82 81 81 79 75 75 74 74 69 66 66 73 68 66 66 65 68 72 68 66 66
77 75 72 77 77 75 76 77 78 79 78 79 80 80 80 80 62 63 69 80 80 80 80 76 79 74 64 66 75 69 68 66 61 61 61 62 62 63 64 70 67 64 62
78 80 79 74 73 75 75 73 76 77 76 77 78 79 75 79 62 62 65 79 77 77 73 70 61 68 61 62 73 70 68 67 68 67 65 64 63 67 69 70 69 66 66
80 79 77 74 73 73 74 74 75 75 76 75 75 74 77 75 69 61 60 72 76 74 71 71 68 59 58 59 65 72 69 68 66 68 69 71 71 71 70 69 68 68 66
78 74 72 70 71 71 69 68 70 71 74 70 69 68 69 69 62 60 60 61 67 73 71 68 63 56 56 58 63 58 59 64 68 69 70 69 69 69 69 68 68 67 68
75 74 71 70 69 68 68 65 64 65 68 68 67 65 63 62 63 57 58 59 62 67 67 60 54 53 55 57 57 59 59 67 70 68 67 67 66 68 69 68 68 68 68
73 71 71 69 67 66 65 65 65 63 61 61 60 60 60 61 61 61 60 60 59 60 59 59 59 59 59 60 61 61 64 66 67 66 65 66 67 66 65 65 65 65 64
70 69 71 70 68 60 54 53 60 55 56 62 60 59 58 56 54 53 56 59 59 57 59 60 59 60 59 60 61 62 63 65 65 66 66 66 65 65 64 65 64 65 62
66 65 65 69 68 68 62 55 48 47 46 46 49 55 53 50 48 47 47 48 50 53 59 59 58 58 58 58 59 63 66 67 66 66 66 66 64 64 63 64 64 63 61
65 62 62 63 62 62 62 60 57 51 46 44 44 46 48 47 46 46 46 47 48 55 61 61 61 60 61 65 66 66 65 66 67 66 65 64 64 64 64 62 62 62 61
66 57 62 63 63 62 61 62 61 60 57 56 47 46 44 44 44 44 45 52 57 57 62 63 63 66 66 66 67 66 65 65 66 65 65 65 64 63 62 61 61 60 60
68 66 63 62 63 62 62 61 61 60 57 53 53 51 47 43 45 46 47 57 60 62 65 67 67 68 67 66 67 66 66 66 65 64 64 64 64 63 61 62 62 58 59
69 63 63 61 60 62 62 62 60 60 58 56 57 55 55 54 57 57 56 58 61 64 67 67 67 67 68 67 67 66 65 65 65 65 64 64 64 64 64 63 62 61 61
71 69 65 62 61 61 61 63 63 61 61 59 59 57 52 58 61 63 65 63 66 71 70 69 67 66 66 67 66 66 67 67 66 66 66 65 65 65 65 65 66 65 65
74 72 71 67 64 64 62 63 62 63 63 64 62 60 50 58 66 65 63 71 75 72 73 69 70 69 69 68 67 68 68 68 68 68 68 68 66 66 66 66 66 66 65
78 74 72 73 74 68 70 71 70 69 70 69 68 67 63 63 65 68 74 75 74 74 74 73 72 73 73 72 72 72 72 71 70 71 69 69 68 68 66 66 66 65 64
80 82 80 79 78 77 77 76 71 66 77 76 74 73 70 70 69 73 74 74 74 74 74 73 74 74 72 74 74 75 68 66 70 70 69 69 67 64 65 67 66 67 66
81 83 80 76 72 77 78 79 79 78 78 78 76 75 75 76 77 77 77 76 76 75 75 75 76 76 75 74 71 65 46 46 59 49 69 69 68 67 68 68 67 68 67
82 83 81 79 77 78 72 78 78 78 78 79 78 77 76 77 78 78 77 76 75 76 75 74 76 77 77 76 69 47 36 44 53 41 60 65 65 66 67 67 68 68 64
MSLP
1009.72 1010.02 1010.33 1010.95 1011.64 1012.43 1012.84 1013.43 1014.01 1013.87 1013.38 1015.26 1014.98 1013.99 1014.55 1014.99 1015.34 1015.66 1015.89 1016.34 1016.06 1015.73 1015.67 1015.74 1015.81 1015.63 1015.52 1015.55 1015.48 1015.49 1015.77 1016.12 1016.24 1015.99 1015.68 1015.55 1015.25 1015.20 1015.53 1016.27 1017.04 1017.92 1018.72
1008.96 1009.59 1009.68 1010.06 1010.60 1011.36 1012.13 1012.76 1013.42 1013.55 1013.78 1013.97 1014.30 1014.61 1014.99 1014.98 1015.20 1015.58 1015.85 1015.68 1015.78 1015.69 1015.67 1015.71 1015.74 1015.59 1015.58 1015.65 1015.67 1015.81 1015.70 1015.81 1016.15 1016.14 1015.82 1015.82 1015.59 1015.54 1015.92 1015.98 1016.19 1017.31 1018.30
1008.21 1008.93 1009.58 1009.68 1010.07 1010.35 1011.11 1011.87 1012.69 1013.34 1013.71 1013.90 1014.24 1014.73 1014.88 1014.78 1014.96 1015.21 1015.44 1015.39 1015.46 1015.17 1015.13 1015.37 1015.58 1015.84 1015.86 1015.84 1015.70 1016.10 1016.16 1015.95 1016.26 1016.46 1016.41 1016.14 1015.94 1015.92 1015.93 1016.16 1016.83 1017.74 1018.57
1009.92 1008.69 1009.35 1009.64 1009.67 1009.88 1010.21 1011.00 1011.81 1012.65 1013.31 1013.77 1013.94 1014.14 1014.29 1014.40 1014.62 1014.67 1014.89 1015.12 1015.10 1014.86 1014.90 1015.06 1015.40 1015.67 1015.82 1015.80 1015.93 1016.05 1016.16 1016.39 1016.50 1016.57 1016.59 1016.56 1016.47 1016.28 1016.30 1016.60 1017.03 1017.97 1018.90
1009.68 1008.71 1010.13 1010.13 1009.66 1010.44 1010.13 1010.13 1010.78 1011.68 1012.44 1013.04 1013.41 1013.70 1013.91 1014.08 1014.01 1014.08 1014.30 1014.65 1014.67 1014.59 1014.70 1014.89 1015.10 1015.35 1015.61 1015.80 1015.92 1016.15 1016.41 1016.56 1016.61 1016.81 1016.73 1016.72 1016.70 1016.69 1016.75 1016.80 1017.06 1017.82 1018.62
1009.48 1009.37 1010.15 1011.17 1009.75 1010.00 1010.21 1010.00 1010.01 1011.00 1011.82 1012.29 1012.66 1012.90 1013.13 1013.35 1013.39 1013.53 1013.86 1014.05 1014.17 1014.29 1014.62 1014.71 1015.00 1015.41 1015.98 1016.05 1016.16 1016.41 1016.67 1016.89 1017.12 1017.13 1016.99 1017.06 1017.17 1017.23 1017.12 1017.19 1017.29 1017.60 1018.51
1009.85 1009.53 1009.70 1010.17 1009.49 1009.65 1010.15 1009.92 1009.76 1010.61 1011.32 1011.78 1012.12 1012.50 1012.68 1012.81 1012.90 1013.06 1013.26 1013.46 1013.66 1013.97 1014.29 1014.55 1014.73 1015.26 1015.78 1016.20 1016.54 1016.80 1017.06 1017.26 1017.48 1017.48 1017.37 1017.58 1017.69 1017.87 1017.63 1017.52 1017.74 1018.21 1019.01
1009.56 1009.93 1009.35 1009.59 1009.99 1010.05 1009.73 1009.45 1009.77 1010.36 1010.90 1011.27 1011.55 1011.81 1012.19 1012.36 1012.46 1012.65 1012.90 1013.18 1013.45 1013.77 1014.06 1014.32 1014.49 1014.97 1015.46 1015.94 1016.46 1016.90 1017.49 1017.78 1017.92 1017.66 1017.83 1018.15 1018.07 1018.17 1017.94 1017.65 1018.12 1018.76 1019.21
1008.96 1009.13 1009.28 1009.18 1009.34 1009.35 1009.35 1009.58 1009.93 1010.38 1010.78 1010.79 1010.99 1011.28 1011.58 1011.78 1012.35 1012.57 1012.95 1013.14 1013.33 1013.52 1013.88 1014.54 1014.68 1015.23 1015.57 1015.79 1016.25 1016.93 1017.51 1018.09 1018.46 1018.34 1018.38 1018.34 1018.13 1017.98 1017.78 1017.65 1018.10 1018.60 1019.14
1009.08 1009.12 1009.34 1009.72 1009.68 1009.64 1009.78 1010.20 1010.27 1010.38 1010.48 1010.54 1010.57 1010.65 1010.86 1011.34 1012.00 1012.47 1013.10 1012.71 1012.95 1013.32 1014.29 1015.00 1015.19 1015.50 1015.83 1015.86 1015.95 1016.60 1017.33 1017.66 1017.92 1018.31 1018.48 1018.35 1018.06 1017.68 1017.43 1017.59 1017.91 1018.12 1018.43
1009.56 1009.70 1009.84 1010.24 1010.49 1010.47 1010.47 1010.60 1010.70 1010.58 1010.60 1010.65 1010.68 1011.06 1011.07 1011.11 1011.96 1012.67 1013.06 1013.10 1012.86 1013.49 1014.06 1014.83 1015.72 1016.11 1016.28 1016.32 1016.22 1016.12 1016.84 1017.37 1017.64 1017.81 1017.70 1017.76 1017.76 1017.76 1017.78 1018.01 1017.97 1018.20 1018.41
1010.09 1010.55 1010.95 1011.20 1011.28 1011.22 1011.32 1011.41 1011.24 1011.05 1010.85 1011.21 1011.54 1011.86 1011.96 1012.14 1012.31 1012.72 1013.06 1013.25 1012.84 1013.32 1014.21 1015.13 1016.02 1016.28 1016.50 1016.73 1016.86 1016.55 1016.73 1017.48 1017.64 1017.55 1017.52 1017.56 1017.73 1017.61 1018.07 1018.22 1018.32 1018.48 1018.66
1010.45 1010.80 1011.25 1011.51 1011.74 1011.86 1011.82 1011.84 1011.82 1011.66 1011.62 1011.49 1011.97 1012.35 1012.62 1012.91 1012.95 1013.06 1013.22 1013.09 1012.99 1013.59 1014.35 1015.34 1016.09 1016.68 1016.95 1016.90 1017.34 1017.50 1017.44 1017.34 1017.24 1017.58 1017.83 1017.91 1018.33 1017.53 1017.83 1018.04 1018.35 1018.45 1018.66
1010.81 1011.06 1011.35 1011.77 1012.11 1012.24 1012.46 1012.43 1012.57 1012.77 1012.79 1012.63 1012.74 1013.03 1013.27 1013.61 1013.69 1013.61 1013.78 1013.68 1013.81 1013.79 1014.74 1015.75 1016.45 1016.72 1017.19 1017.45 1018.08 1018.16 1017.74 1017.55 1017.56 1017.90 1018.13 1017.88 1018.15 1018.11 1018.16 1018.08 1018.40 1018.84 1019.34
1011.30 1011.37 1011.57 1011.89 1012.46 1013.23 1013.89 1013.98 1013.63 1013.82 1013.62 1013.45 1013.63 1013.60 1013.86 1014.06 1014.50 1014.32 1014.05 1014.22 1014.46 1014.81 1015.42 1015.82 1016.48 1017.04 1017.46 1018.01 1018.09 1018.22 1017.96 1017.79 1017.94 1018.03 1018.09 1018.14 1018.30 1018.20 1018.31 1018.16 1018.31 1018.54 1019.24
1011.56 1011.82 1011.92 1012.17 1012.64 1013.14 1013.93 1014.35 1014.45 1014.57 1013.96 1014.02 1014.35 1014.33 1014.65 1014.33 1014.45 1014.82 1014.91 1014.83 1014.85 1015.22 1016.04 1016.30 1016.77 1017.28 1017.78 1018.18 1018.24 1018.45 1018.15 1018.23 1018.18 1018.06 1018.31 1018.59 1018.63 1018.52 1018.75 1018.69 1018.71 1019.12 1019.47
1011.91 1012.19 1012.28 1012.55 1013.06 1013.43 1013.79 1014.12 1014.67 1015.22 1014.95 1015.04 1014.86 1015.06 1015.14 1015.25 1015.27 1015.21 1015.60 1015.88 1016.26 1016.07 1016.18 1016.79 1017.11 1017.45 1017.66 1017.67 1017.54 1018.18 1018.19 1018.28 1018.28 1018.20 1018.44 1018.50 1018.44 1018.77 1019.00 1019.11 1019.20 1019.48 1019.89
1011.85 1012.27 1012.48 1012.65 1012.99 1013.38 1013.64 1013.95 1014.34 1014.56 1014.85 1015.38 1015.74 1015.43 1015.71 1015.97 1016.20 1016.41 1016.23 1016.24 1016.69 1016.69 1016.52 1016.49 1016.51 1016.61 1016.86 1017.40 1017.65 1017.99 1018.08 1018.17 1018.36 1018.43 1018.38 1018.50 1018.63 1019.01 1019.35 1019.48 1019.65 1019.86 1020.08
1011.63 1012.05 1012.41 1012.71 1012.91 1013.18 1013.55 1013.75 1013.99 1014.26 1014.88 1015.43 1015.54 1015.96 1016.32 1016.37 1016.43 1016.44 1016.53 1016.80 1016.48 1016.11 1015.96 1015.95 1015.95 1016.19 1016.70 1016.75 1017.32 1017.90 1017.88 1018.07 1018.22 1018.52 1018.66 1018.77 1018.94 1019.20 1019.51 1019.69 1019.82 1019.87 1020.07
1011.27 1011.60 1012.18 1012.59 1012.99 1013.15 1013.29 1013.54 1013.95 1014.37 1014.73 1014.82 1015.21 1015.47 1016.27 1016.37 1016.60 1016.64 1016.47 1016.09 1016.16 1015.77 1015.12 1015.46 1015.62 1015.86 1016.35 1017.06 1017.28 1017.71 1017.97 1018.14 1018.25 1018.59 1018.77 1018.89 1019.03 1019.13 1019.24 1019.42 1019.70 1019.88 1020.00
1010.87 1011.54 1011.99 1012.34 1012.81 1013.04 1013.17 1013.31 1013.52 1013.75 1014.03 1014.57 1014.91 1015.26 1015.50 1015.74 1015.76 1015.86 1015.72 1015.39 1015.08 1014.84 1014.83 1015.10 1015.36 1015.78 1016.37 1016.90 1017.38 1017.73 1017.90 1018.10 1018.20 1018.33 1018.56 1018.79 1018.85 1018.99 1019.12 1019.22 1019.21 1019.30 1019.40
1010.10 1010.73 1011.33 1011.76 1012.09 1012.50 1012.93 1013.24 1013.38 1013.43 1013.64 1013.98 1014.35 1014.82 1015.30 1015.53 1015.09 1015.03 1015.02 1014.51 1013.90 1014.10 1014.55 1015.20 1015.63 1016.01 1016.25 1016.81 1017.31 1017.39 1017.44 1017.47 1017.57 1017.77 1018.04 1018.29 1018.58 1018.68 1018.77 1018.77 1018.78 1018.79 1018.93
1009.21 1009.70 1010.01 1010.52 1010.63 1011.15 1011.73 1011.99 1012.06 1012.38 1012.54 1013.07 1013.52 1014.09 1014.71 1014.73 1014.56 1014.21 1013.55 1013.67 1013.79 1014.13 1014.41 1015.01 1015.41 1015.80 1015.77 1016.38 1016.84 1016.66 1016.65 1016.72 1016.87 1017.08 1017.48 1017.72 1017.93 1018.11 1018.13 1018.24 1018.36 1018.44 1018.53
1008.36 1008.39 1008.65 1009.15 1009.69 1010.09 1010.17 1010.37 1011.07 1011.24 1010.85 1011.44 1012.10 1012.85 1013.29 1013.42 1013.37 1012.81 1013.03 1013.40 1013.80 1014.10 1014.49 1014.74 1014.78 1015.03 1015.47 1015.89 1015.97 1016.04 1016.47 1016.47 1016.47 1016.93 1017.10 1017.36 1017.54 1017.70 1017.78 1017.61 1017.77 1018.02 1018.16
1007.95 1007.83 1008.29 1008.91 1009.39 1009.64 1009.55 1009.63 1009.93 1010.25 1010.47 1010.63 1011.23 1011.86 1012.23 1012.01 1011.76 1012.21 1012.72 1013.18 1013.55 1013.92 1014.23 1014.27 1014.29 1014.63 1015.09 1015.42 1016.09 1016.58 1017.12 1017.06 1017.32 1017.51 1017.29 1017.26 1017.58 1017.73 1017.70 1017.61 1017.56 1017.61 1017.82
1007.54 1007.42 1007.93 1008.52 1008.91 1009.12 1009.26 1009.43 1009.52 1009.86 1010.15 1010.27 1010.50 1010.90 1011.28 1011.49 1011.50 1011.74 1012.26 1012.67 1013.07 1013.37 1013.62 1013.88 1014.17 1014.46 1014.71 1014.94 1015.69 1016.58 1017.03 1017.05 1017.30 1017.57 1017.52 1017.38 1017.47 1017.50 1017.42 1017.42 1017.33 1017.20 1017.37
Wind_Speed
15 15 15 13 13 10 7 6 9 4 3 9 7 5 3 2 5 4 4 5 5 5 3 4 5 5 4 1 1 2 1 2 2 3 2 5 2 6 4 7 10 7 5
16 14 14 14 14 14 11 9 7 6 6 9 10 8 4 5 3 5 7 5 6 5 6 4 5 3 1 5 2 5 3 4 3 4 4 4 1 4 3 5 5 8 8
15 15 15 14 14 13 15 12 9 9 8 9 9 8 7 7 6 8 6 5 6 6 5 6 4 5 4 3 2 4 5 4 4 3 4 5 2 2 2 1 8 7 7
14 10 15 14 14 14 11 13 11 11 11 10 8 9 9 8 7 6 8 8 7 7 4 1 4 5 5 5 0 3 3 4 3 3 3 3 2 2 2 3 2 5 6
19 5 7 12 10 9 8 12 12 11 11 10 9 8 10 11 9 9 7 8 6 6 2 4 4 7 7 5 1 3 4 3 3 3 3 3 3 3 3 3 3 7 7
3 7 16 11 14 9 6 9 8 7 9 10 11 11 10 9 13 13 10 7 8 6 5 5 5 9 6 9 10 10 6 3 3 3 1 2 3 4 5 3 3 1 3
6 6 5 5 6 5 6 5 8 10 9 9 10 11 11 11 10 10 14 8 4 4 5 5 3 4 8 8 8 9 10 10 6 2 4 5 3 5 4 4 4 4 3
5 7 6 5 5 6 6 6 7 7 10 10 10 10 10 9 10 10 10 6 5 5 5 5 3 6 4 8 7 7 8 7 6 5 6 3 3 2 3 3 6 6 4
4 4 5 7 5 4 5 7 8 8 10 10 9 10 11 10 8 8 9 7 7 6 2 5 2 6 6 6 7 9 8 6 6 8 7 5 2 2 2 1 3 3 2
3 3 2 2 5 5 4 6 5 8 9 8 11 12 13 12 11 11 8 7 8 6 7 4 8 6 5 7 6 10 7 6 5 4 2 2 5 2 7 6 5 2 4
2 2 4 6 7 6 7 5 4 5 5 7 9 4 6 8 8 9 5 6 3 7 6 5 4 4 2 5 7 8 7 8 5 4 4 4 4 4 6 5 7 7 4
2 5 4 3 4 2 3 3 5 6 4 2 1 2 3 4 4 7 6 7 3 8 7 6 5 6 6 5 5 11 13 7 4 4 3 3 3 5 5 4 5 5 5
2 3 4 3 3 3 3 3 2 3 3 3 2 2 0 1 2 3 4 4 10 10 7 10 11 8 9 9 8 7 6 2 2 3 2 4 2 4 4 5 5 5 4
3 3 5 4 4 6 5 5 4 4 3 3 3 3 3 3 2 2 5 7 12 13 14 9 7 7 8 7 4 1 2 2 3 3 1 3 1 1 1 2 4 4 3
1 3 3 4 6 6 6 4 4 4 2 2 2 3 4 4 2 6 5 7 8 10 10 5 5 4 5 3 2 1 2 1 3 3 2 3 3 3 3 3 3 2 4
1 2 2 4 2 5 5 6 14 9 12 12 9 5 4 7 12 10 11 13 14 12 5 6 5 4 4 3 3 3 2 2 2 3 3 1 2 4 3 2 3 4 5
3 2 2 5 3 3 3 5 5 5 14 14 11 9 8 7 9 13 12 11 6 7 7 6 5 5 6 5 4 4 3 2 1 3 2 3 5 3 2 4 3 3 4
4 4 2 3 4 4 3 4 4 4 3 3 9 8 8 9 8 9 9 7 2 1 1 4 6 5 5 5 4 3 4 2 2 3 2 4 4 3 4 4 4 3 0
5 5 4 3 2 4 4 4 3 5 4 3 4 6 6 8 8 9 5 1 3 4 5 5 4 5 4 4 4 4 5 4 4 3 3 3 3 4 4 4 3 1 2
4 8 5 3 2 1 4 4 5 5 5 5 4 5 4 3 2 4 3 5 5 6 4 5 5 4 4 4 4 4 4 4 4 4 3 2 3 4 4 6 5 4 4
6 6 6 4 5 4 4 5 5 6 5 5 4 5 8 4 6 8 8 7 7 6 5 4 5 5 5 4 4 3 4 4 4 4 4 4 2 2 1 2 4 5 4
6 7 8 8 7 6 6 6 6 6 7 7 6 8 12 6 6 6 6 8 2 5 6 5 5 4 5 5 5 6 7 7 5 4 5 5 5 4 5 4 4 4 3
7 10 9 9 8 9 8 9 9 10 10 9 9 8 8 7 8 9 6 4 4 4 6 5 6 7 7 6 6 6 6 7 7 6 6 5 5 6 6 5 5 4 2
10 8 7 5 6 6 8 9 11 12 7 11 10 9 8 9 10 5 4 5 5 5 5 5 6 8 9 9 8 1 5 4 2 5 5 3 3 2 3 3 3 2 3
9 6 6 5 5 5 4 5 5 5 4 5 8 9 9 9 6 8 6 7 6 6 6 4 3 4 7 6 8 9 6 12 7 2 3 3 3 6 5 6 4 4 4
10 7 6 7 8 6 3 5 5 5 6 6 7 8 8 7 5 6 7 7 7 7 7 6 7 7 7 7 12 12 7 10 6 5 2 3 4 4 5 7 9 6 6
Wind_Direction
188 183 187 188 189 201 214 166 205 211 66 118 215 289 256 187 236 162 267 271 228 235 278 236 237 250 280 51 345 339 195 155 271 305 347 222 271 100 133 126 152 125 122
189 186 189 185 189 187 195 205 188 177 181 198 203 230 232 233 239 189 228 267 230 231 237 256 284 325 29 310 12 326 268 178 213 325 301 355 333 125 76 196 163 137 125
182 183 189 188 190 199 186 197 188 183 195 224 189 206 224 225 221 193 212 254 269 258 209 209 259 289 264 254 14 349 345 360 2 19 304 355 348 15 281 250 104 98 100
281 193 192 192 198 201 183 186 194 183 190 209 215 201 207 208 230 224 197 214 237 249 247 216 217 232 264 250 186 333 330 349 351 350 328 342 33 347 46 72 68 117 139
250 111 337 305 198 214 191 171 184 190 191 198 212 216 204 214 217 218 209 209 217 246 257 192 264 109 93 71 71 61 9 337 332 349 342 360 358 8 14 13 37 109 62
322 198 167 229 323 216 200 183 172 191 203 198 208 215 214 220 221 210 198 210 220 215 233 243 144 125 109 97 95 81 70 14 355 355 326 15 32 17 23 33 10 52 118
337 299 300 220 220 203 225 197 192 205 209 215 214 222 225 217 232 206 199 205 206 229 214 219 226 155 163 129 112 111 93 65 37 256 78 37 61 28 345 31 54 83 79
328 328 324 320 257 226 231 223 225 217 216 218 224 220 223 229 189 192 184 195 199 229 239 237 189 158 82 146 157 122 91 60 25 51 68 69 74 336 305 51 105 110 104
297 294 330 340 325 319 274 251 245 240 232 229 226 228 228 230 189 202 180 195 209 223 163 40 140 139 138 135 142 130 116 114 87 85 108 137 150 252 293 198 122 115 123
284 293 246 350 333 313 319 289 265 259 252 243 234 228 230 230 185 205 229 217 203 153 125 117 33 124 156 165 168 144 142 135 138 151 161 244 227 114 57 57 11 153 144
324 349 0 0 328 340 348 340 282 275 279 281 260 289 267 266 180 215 219 272 195 157 145 142 105 69 152 208 164 154 141 143 150 175 187 193 155 125 76 40 25 49 27
14 109 74 354 357 355 39 23 349 323 284 199 160 78 1 8 16 207 199 237 239 147 126 106 118 108 93 81 63 119 136 149 168 224 147 135 148 111 90 98 85 72 74
292 119 91 63 62 46 46 18 10 17 344 120 161 208 200 20 28 88 157 79 107 109 106 108 108 104 94 79 102 121 135 219 154 101 109 82 64 113 132 133 112 103 89
311 153 131 94 68 51 42 26 45 34 38 51 70 67 63 41 40 105 106 96 85 94 103 105 111 95 90 93 88 109 307 335 88 106 107 123 174 52 108 148 144 166 127
313 27 144 127 102 79 53 12 30 59 7 53 114 118 120 92 27 60 76 119 105 102 104 99 95 81 86 79 59 347 336 34 117 163 132 111 134 100 59 39 30 73 107
267 42 25 107 80 121 118 80 46 34 52 59 57 83 26 87 111 94 100 105 111 114 102 106 99 96 108 126 151 212 189 130 112 99 85 94 77 86 100 63 49 68 78
156 153 81 106 132 147 137 125 114 71 69 43 60 59 62 119 111 115 117 117 81 106 122 128 140 161 189 187 135 161 151 159 203 114 125 124 88 74 56 85 69 78 64
142 153 141 134 151 158 171 141 150 141 131 100 33 61 71 97 101 113 120 99 114 100 245 171 174 175 159 166 171 169 123 177 154 162 128 80 88 107 78 74 70 71 172
173 169 156 147 136 145 150 164 152 125 121 129 124 80 66 65 88 93 49 300 214 213 210 176 153 144 164 151 126 151 174 168 124 99 85 103 102 107 118 133 143 172 188
178 119 147 122 152 141 143 140 126 145 152 139 148 136 146 134 156 181 207 230 242 256 166 151 168 134 126 132 135 110 126 118 119 121 139 170 192 206 172 172 181 201 219
171 161 161 164 170 176 187 187 165 159 155 162 166 164 168 170 191 195 208 224 237 212 158 145 115 118 113 118 127 156 157 154 190 199 162 173 176 127 326 136 223 221 157
172 168 173 178 177 174 195 183 187 176 165 173 165 178 195 214 223 218 224 233 191 116 110 122 124 145 148 157 184 205 191 189 181 178 180 171 173 205 204 214 220 228 191
191 188 182 191 182 175 183 188 179 180 173 175 173 177 188 215 236 245 202 177 136 137 134 155 169 179 158 167 208 223 197 184 180 180 190 204 199 205 204 209 222 240 83
225 207 170 164 146 198 202 194 191 206 191 170 160 167 195 215 228 195 151 136 148 143 160 189 199 189 166 187 204 131 59 27 79 84 61 20 343 46 326 260 125 1 293
275 190 149 127 146 220 212 195 193 190 209 173 156 168 204 235 196 158 172 155 167 162 180 201 182 139 165 149 115 108 104 78 70 17 357 346 300 304 305 309 292 214 243
250 178 178 165 188 200 235 204 194 180 206 208 185 179 189 210 223 175 177 174 179 191 183 179 195 199 204 195 125 126 124 104 95 71 350 290 265 259 254 260 272 266 190